Weather History for KRIV - May, 2014

Change the Weather History Date:

Wednesday, May 14, 2014

  Actual Average Record
Temperature  
Mean Temperature 82 °F -  
Max Temperature 94 °F 78 °F 94 °F (2014)
Min Temperature 66 °F 50 °F 44 °F (2008)
Cooling Degree Days 16    
Growing Degree Days 32 (Base 50)    
Moisture  
Dew Point 11 °F    
Average Humidity 7    
Maximum Humidity 14    
Minimum Humidity 4    
Precipitation  
Precipitation 0.00 in - - ()
Sea Level Pressure  
Sea Level Pressure 30.03 in    
Wind  
Wind Speed 13 mph (ENE)    
Max Wind Speed 32 mph    
Max Gust Speed 44 mph    
Visibility 10 miles    
Events      
Averages and records for this station are not official NWS values.
T = Trace of Precipitation, MM = Missing Value Source: NWS Daily Summary

Daily Weather History Graph

Daily Weather History Graph

Search for Another Location

Airport or City:

Trip Planner

Search our weather history database for the weather conditions in past years. The results will help you decide how hot, cold, wet, or windy it might be!

Date:

Astronomy

May. 14, 2014 Rise Set
Actual Time 5:48 AM PDT 7:42 PM PDT
Civil Twilight 5:20 AM PDT 8:10 PM PDT
Nautical Twilight 4:47 AM PDT 8:43 PM PDT
Astronomical Twilight 4:12 AM PDT 9:19 PM PDT
Moon 7:54 PM PDT (5/14) 5:48 AM PDT (5/14)
Length of Visible Light 14h 49m
Length of Day
13h 54m
Full, 100% of the Moon is Illuminated
May 14
Full
May 14
Full
May 21
Last Quarter
May 28
New
Jun 5
First Quarter

Hourly Weather History & Observations

Time (PDT) Temp. Dew Point Humidity Pressure Visibility Wind Dir Wind Speed Gust Speed Precip Events Conditions
12:58 AM 73.0 °F 8.6 °F 8% 30.07 in 10.0 mi North 4.6 mph - N/A   Clear
1:58 AM 76.3 °F 8.1 °F 7% 30.06 in 10.0 mi East 13.8 mph 20.7 mph N/A   Clear
2:58 AM 70.5 °F 11.7 °F 10% 30.05 in 10.0 mi NNE 9.2 mph - N/A   Clear
3:58 AM 72.3 °F 10.2 °F 9% 30.05 in 10.0 mi NNE 8.1 mph - N/A   Clear
4:58 AM 69.1 °F 10.6 °F 10% 30.06 in 10.0 mi NNE 8.1 mph - N/A   Clear
5:58 AM 75.7 °F 7.7 °F 7% 30.06 in 10.0 mi East 18.4 mph 25.3 mph N/A   Clear
6:58 AM 70.7 °F 13.3 °F 11% 30.07 in 10.0 mi NE 5.8 mph - N/A   Clear
7:58 AM 80.1 °F 7.5 °F 6% 30.08 in 10.0 mi East 19.6 mph 29.9 mph N/A   Clear
8:58 AM 82.9 °F 9.7 °F 6% 30.08 in 10.0 mi ENE 13.8 mph 18.4 mph N/A   Clear
9:58 AM 85.1 °F 11.3 °F 6% 30.07 in 10.0 mi East 23.0 mph 34.5 mph N/A   Clear
10:58 AM 88.2 °F 9.5 °F 5% 30.06 in 10.0 mi East 23.0 mph 35.7 mph N/A   Clear
11:58 AM 89.8 °F 10.6 °F 5% 30.06 in 10.0 mi East 32.2 mph 42.6 mph N/A   Clear
12:58 PM 90.7 °F 10.4 °F 5% 30.03 in 10.0 mi East 29.9 mph 43.7 mph N/A   Clear
1:58 PM 93.4 °F 8.2 °F 4% 30.01 in 10.0 mi East 26.5 mph 31.1 mph N/A   Clear
2:58 PM 93.7 °F 8.4 °F 4% 30.00 in 10.0 mi East 26.5 mph 32.2 mph N/A   Clear
3:58 PM 94.5 °F 9.0 °F 4% 29.98 in 10.0 mi East 19.6 mph 25.3 mph N/A   Clear
4:58 PM 93.6 °F 8.4 °F 4% 29.98 in 10.0 mi East 16.1 mph 23.0 mph N/A   Clear
5:58 PM 92.7 °F 12.7 °F 5% 29.97 in 10.0 mi East 12.7 mph - N/A   Clear
6:58 PM 89.8 °F 10.8 °F 5% 29.98 in 10.0 mi East 9.2 mph - N/A   Clear
7:58 PM 86.4 °F 12.2 °F 6% 29.98 in 10.0 mi East 10.4 mph - N/A   Clear
8:58 PM 84.7 °F 11.1 °F 6% 30.00 in 10.0 mi East 11.5 mph - N/A   Clear
9:58 PM 80.4 °F 12.0 °F 8% 30.02 in 10.0 mi WSW 4.6 mph - N/A   Clear
10:58 PM 74.8 °F 18.1 °F 12% 30.04 in 10.0 mi Calm Calm - N/A   Clear
11:58 PM 66.9 °F 15.4 °F 14% 30.04 in 10.0 mi NNW 1.2 mph - N/A   Clear